User: anonymous   Login
Location: Unspecified
(0.0000°N, 0.0000°E)
Time: 08:57:16
(UTC+00:00)
Language:

N. Korean satellite - Orbit

View from above orbital plane
View from above orbital plane
View from above satellite
View from above satellite

Ground track
Ground track

The orbit data is extracted from the following two-line orbital elements,

1 39026U 12072A   17327.77305394  .00002593  00000-0  10117-3 0  9992
2 39026  97.2173 340.1623 0039142 334.1643  25.7640 15.26107811274327
Epoch (UTC): 23 November 2017 18:33:11
Eccentricity: 0.0039142
inclination: 97.2173°
perigee height: 460 km
apogee height: 514 km
right ascension of ascending node: 340.1623°
argument of perigee: 334.1643°
revolutions per day: 15.26107811
mean anomaly at epoch: 25.7640°
orbit number at epoch: 27432

The dashed part of the orbit path shows where the satellite is in the earth's shadow,  

DLR